Weather History for KGEV - January, 2014

Change the Weather History Date:

Thursday, January 2, 2014

  Actual Average Record
Temperature  
Mean Temperature 29 °F -  
Max Temperature 41 °F 44 °F 62 °F (2005)
Min Temperature 15 °F 24 °F 9 °F (1977)
Degree Days  
Heating Degree Days 36    
Moisture  
Dew Point 25 °F    
Average Humidity 78    
Maximum Humidity 95    
Minimum Humidity 56    
Precipitation  
Precipitation 0.01 in - - ()
Sea Level Pressure  
Sea Level Pressure 29.78 in    
Wind  
Wind Speed 3 mph (WNW)    
Max Wind Speed 31 mph    
Max Gust Speed 45 mph    
Visibility 7 miles    
Events Rain , Snow    
Averages and records for this station are not official NWS values.
T = Trace of Precipitation, MM = Missing Value Source: NWS Daily Summary

Daily Weather History Graph

Daily Weather History Graph

Search for Another Location

Airport or City:

Trip Planner

Search our weather history database for the weather conditions in past years. The results will help you decide how hot, cold, wet, or windy it might be!

Date:

Astronomy

Jan. 02, 2014 Rise Set
Actual Time 7:37 AM EST 5:22 PM EST
Civil Twilight 7:09 AM EST 5:50 PM EST
Nautical Twilight 6:36 AM EST 6:22 PM EST
Astronomical Twilight 6:05 AM EST 6:54 PM EST
Moon 8:21 AM EST (1/2) 7:13 PM EST (1/2)
Length of Visible Light 10h 41m
Length of Day
9h 44m
New Moon, 2% of the Moon is Illuminated
Jan 2
New Moon
Jan 7
First Quarter
Jan 15
Full
Jan 24
Last Quarter
Jan 30
New

Hourly Weather History & Observations

Time (EST) Temp. Windchill Dew Point Humidity Pressure Visibility Wind Dir Wind Speed Gust Speed Precip Events Conditions
12:15 AM 30.2 °F - 21.9 °F 71% 30.05 in 10.0 mi Calm Calm - N/A   Clear
12:35 AM 30.0 °F - 21.7 °F 71% 30.04 in 10.0 mi Calm Calm - N/A   Clear
12:55 AM 29.8 °F - 21.9 °F 72% 30.04 in 10.0 mi Calm Calm - N/A   Clear
1:15 AM 29.8 °F - 21.9 °F 72% 30.03 in 10.0 mi Calm Calm - N/A   Clear
1:35 AM 29.8 °F - 22.1 °F 73% 30.01 in 10.0 mi Calm Calm - N/A   Clear
1:55 AM 29.5 °F - 21.7 °F 73% 30.01 in 10.0 mi Calm Calm - N/A   Clear
2:15 AM 29.3 °F - 21.9 °F 74% 30.00 in 10.0 mi Calm Calm - N/A   Clear
2:35 AM 29.8 °F - 21.7 °F 72% 30.00 in 10.0 mi Calm Calm - N/A   Clear
2:55 AM 28.0 °F - 21.7 °F 77% 29.99 in 10.0 mi Calm Calm - N/A   Clear
3:15 AM 28.4 °F - 21.7 °F 76% 29.99 in 10.0 mi Calm Calm - N/A   Clear
3:35 AM 28.0 °F - 21.9 °F 78% 29.98 in 10.0 mi Calm Calm - N/A   Clear
3:55 AM 28.4 °F - 21.7 °F 76% 29.97 in 10.0 mi Calm Calm - N/A   Clear
4:15 AM 28.8 °F - 21.7 °F 75% 29.94 in 10.0 mi Calm Calm - N/A   Clear
4:35 AM 28.2 °F - 21.6 °F 76% 29.93 in 10.0 mi Calm Calm - N/A   Clear
4:55 AM 29.7 °F - 21.7 °F 72% 29.93 in 10.0 mi Calm Calm - N/A   Clear
5:15 AM 29.8 °F - 21.6 °F 71% 29.92 in 10.0 mi Calm Calm - N/A   Clear
5:35 AM 27.5 °F - 21.7 °F 79% 29.91 in 10.0 mi Calm Calm - N/A   Clear
5:55 AM 28.4 °F - 21.7 °F 76% 29.90 in 10.0 mi Calm Calm - N/A   Clear
6:15 AM 27.9 °F - 21.7 °F 78% 29.90 in 10.0 mi Calm Calm - N/A   Scattered Clouds
6:35 AM 28.8 °F 23.7 °F 21.7 °F 75% 29.88 in 10.0 mi NNW 4.6 mph - N/A   Overcast
6:55 AM 30.7 °F - 22.3 °F 71% 29.89 in 10.0 mi Calm Calm - N/A   Overcast
7:15 AM 29.5 °F - 21.7 °F 73% 29.89 in 10.0 mi Calm Calm - N/A   Mostly Cloudy
7:35 AM 28.9 °F - 23.0 °F 78% 29.87 in 10.0 mi Calm Calm - N/A   Overcast
7:55 AM 29.5 °F - 21.7 °F 73% 29.87 in 10.0 mi Calm Calm - N/A   Overcast
8:15 AM 29.7 °F - 21.7 °F 72% 29.86 in 10.0 mi Calm Calm - N/A   Overcast
8:35 AM 29.7 °F - 22.8 °F 76% 29.86 in 10.0 mi Calm Calm - N/A   Overcast
8:55 AM 30.2 °F - 23.7 °F 77% 29.86 in 10.0 mi Calm Calm - N/A   Overcast
9:15 AM 31.8 °F - 23.9 °F 73% 29.84 in 10.0 mi Calm Calm - N/A   Overcast
9:35 AM 33.3 °F - 24.3 °F 70% 29.83 in 10.0 mi Calm Calm - N/A   Overcast
9:55 AM 36.0 °F - 22.6 °F 58% 29.82 in 10.0 mi Calm Calm - N/A   Light Drizzle
10:15 AM 35.1 °F - 20.7 °F 56% 29.83 in 10.0 mi Calm Calm - N/A   Overcast
10:35 AM 33.6 °F - 23.2 °F 66% 29.81 in 10.0 mi Calm Calm - N/A   Overcast
10:55 AM 37.2 °F - 24.4 °F 60% 29.80 in 10.0 mi Calm Calm - N/A Rain Rain
11:15 AM 36.5 °F - 25.3 °F 64% 29.79 in 10.0 mi Calm Calm - N/A   Light Drizzle
11:35 AM 36.1 °F - 29.3 °F 76% 29.77 in 7.0 mi Calm Calm - N/A Rain Rain
11:55 AM 34.7 °F - 29.7 °F 82% 29.75 in 10.0 mi Calm Calm - N/A   Light Drizzle
12:15 PM 34.7 °F - 29.8 °F 82% 29.73 in 10.0 mi Calm Calm - N/A Rain Light Rain
12:35 PM 34.9 °F - 30.6 °F 84% 29.71 in 7.0 mi Calm Calm - N/A   Drizzle
12:55 PM 35.1 °F - 32.7 °F 91% 29.69 in 10.0 mi Calm Calm - N/A Rain Light Rain
1:15 PM 35.8 °F - 33.1 °F 90% 29.68 in 10.0 mi Calm Calm - N/A   Light Drizzle
1:35 PM 36.0 °F - 33.3 °F 90% 29.65 in 7.0 mi Calm Calm - N/A Rain Rain
1:55 PM 36.7 °F - 34.5 °F 92% 29.64 in 10.0 mi Calm Calm - N/A Rain Light Rain
2:15 PM 36.9 °F - 35.1 °F 93% 29.63 in 7.0 mi Calm Calm - N/A Rain Light Rain
2:35 PM 37.6 °F - 36.1 °F 95% 29.61 in 7.0 mi Calm Calm - N/A   Overcast
2:55 PM 37.8 °F - 36.5 °F 95% 29.61 in 4.0 mi Calm Calm - N/A Rain Rain
3:15 PM 37.8 °F 35.3 °F 36.5 °F 95% 29.61 in 4.0 mi NW 3.5 mph - N/A Rain Rain
3:35 PM 41.9 °F 35.4 °F 37.4 °F 84% 29.62 in 7.0 mi West 11.5 mph 26.5 mph N/A   Light Drizzle
3:55 PM 41.0 °F 32.5 °F 36.0 °F 82% 29.60 in 10.0 mi West 17.3 mph 27.6 mph N/A   Light Drizzle
4:15 PM 39.4 °F 30.7 °F 34.7 °F 83% 29.62 in 5.0 mi West 16.1 mph 26.5 mph N/A   Drizzle
4:35 PM 38.3 °F 29.3 °F 34.2 °F 85% 29.64 in 3.0 mi West 16.1 mph 27.6 mph N/A   Drizzle
4:55 PM 37.6 °F 28.4 °F 34.0 °F 87% 29.62 in 4.0 mi West 16.1 mph 23.0 mph N/A Rain Rain
5:15 PM 37.4 °F 27.8 °F 32.9 °F 84% 29.63 in 7.0 mi West 17.3 mph 25.3 mph N/A   Light Drizzle
5:35 PM 36.3 °F 27.1 °F 32.9 °F 87% 29.62 in 5.0 mi WNW 15.0 mph - N/A   Light Drizzle
5:55 PM 35.8 °F 25.4 °F 32.0 °F 86% 29.60 in 7.0 mi WNW 18.4 mph 25.3 mph N/A   Light Drizzle
6:15 PM 35.1 °F 24.8 °F 32.0 °F 89% 29.61 in 4.0 mi WNW 17.3 mph 21.9 mph N/A Rain Light Rain
6:35 PM 34.7 °F 26.9 °F 31.8 °F 89% 29.61 in 5.0 mi WNW 10.4 mph 17.3 mph N/A Snow Light Snow
6:55 PM 34.0 °F 23.4 °F 31.1 °F 89% 29.61 in 2.0 mi WNW 17.3 mph 23.0 mph N/A Snow Light Snow
7:15 PM 33.1 °F 21.5 °F 30.2 °F 89% 29.61 in 1.8 mi WNW 19.6 mph 26.5 mph N/A Snow Light Snow
7:35 PM 32.4 °F 24.0 °F 28.9 °F 87% 29.61 in 5.0 mi NNW 10.4 mph 26.5 mph N/A Snow Light Snow
7:55 PM 31.8 °F 23.9 °F 25.5 °F 78% 29.62 in 7.0 mi NW 9.2 mph 27.6 mph N/A Snow Light Snow
8:15 PM 31.1 °F 23.1 °F 24.4 °F 76% 29.63 in 4.0 mi WNW 9.2 mph 28.8 mph N/A Snow Light Snow
8:35 PM 30.2 °F 18.1 °F 23.5 °F 76% 29.62 in 5.0 mi NW 18.4 mph 33.4 mph N/A Snow Light Snow
8:55 PM 30.0 °F 17.2 °F 23.4 °F 76% 29.63 in 4.0 mi WNW 20.7 mph 34.5 mph N/A Snow Light Snow
9:15 PM 28.6 °F 15.3 °F 23.5 °F 81% 29.63 in 2.0 mi NW 20.7 mph 31.1 mph N/A Snow Light Snow
9:35 PM 27.5 °F 15.0 °F 22.8 °F 83% 29.66 in 2.5 mi NW 17.3 mph 29.9 mph N/A Snow Light Snow
9:55 PM 26.2 °F 12.2 °F 20.7 °F 79% 29.67 in 2.0 mi NW 20.7 mph 32.2 mph N/A Snow Light Snow
10:15 PM 24.8 °F 11.1 °F 18.9 °F 78% 29.67 in 1.8 mi WNW 18.4 mph 38.0 mph N/A Snow Light Snow
10:35 PM 23.0 °F 8.3 °F 16.7 °F 77% 29.68 in 1.8 mi NW 19.6 mph 38.0 mph N/A Snow Light Snow
10:55 PM 20.5 °F 1.7 °F 13.8 °F 75% 29.66 in 1.2 mi WNW 31.1 mph 44.9 mph N/A Snow Light Snow
11:15 PM 18.9 °F 2.9 °F 13.3 °F 79% 29.69 in 1.0 mi NW 19.6 mph 39.1 mph N/A Snow Snow
11:35 PM 17.6 °F 5.0 °F 11.1 °F 76% 29.71 in 1.2 mi NNW 11.5 mph 28.8 mph N/A Snow Light Snow
11:55 PM 15.8 °F -1.9 °F 8.2 °F 72% 29.71 in 1.5 mi NW 21.9 mph 32.2 mph 0.01 in Snow Light Snow